• In Romania
  • List of Countries
  • For 7 days
  • Water Temperature
  • Satellite Maps
  • Weather Map
  • Weather Widgets
  • user-avatar
    Login

    Hourly Weather Maloe Sidelnikovo

    Today, 26 September, Wednesday

    Time Temperature Precipitation Wind Pressure Humidity
    00:00 +3°C° 0 mm 4 mps 746 mmHg 77%
    01:00 +3°C° 0 mm 4 mps 746 mmHg 78%
    02:00 +1°C° 0 mm 4 mps 747 mmHg 78%
    03:00 +1°C° 0 mm 4 mps 747 mmHg 80%
    04:00 0°C° 0 mm 4 mps 748 mmHg 81%
    05:00 +1°C° 0 mm 3 mps 748 mmHg 83%
    06:00 +1°C° 0 mm 4 mps 748 mmHg 80%
    07:00 +3°C° 0 mm 4 mps 749 mmHg 78%
    08:00 +4°C° 0 mm 4 mps 749 mmHg 75%
    09:00 +5°C° 0 mm 4 mps 749 mmHg 73%
    10:00 +7°C° 0 mm 4 mps 749 mmHg 71%
    11:00 +8°C° 0 mm 5 mps 748 mmHg 69%
    12:00 +9°C° 0 mm 5 mps 748 mmHg 66%
    13:00 +9°C° 0 mm 5 mps 747 mmHg 64%
    14:00 +10°C° 0 mm 5 mps 747 mmHg 61%
    15:00 +9°C° 0 mm 5 mps 746 mmHg 62%
    16:00 +9°C° 0 mm 5 mps 745 mmHg 63%
    17:00 +8°C° 0 mm 5 mps 744 mmHg 65%
    18:00 +8°C° 0.5 mm 6 mps 743 mmHg 69%
    19:00 +6°C° 0.5 mm 7 mps 742 mmHg 74%
    20:00 +5°C° 0.5 mm 8 mps 740 mmHg 79%
    21:00 +5°C° 1.5 mm 8 mps 739 mmHg 81%
    22:00 +5°C° 1.5 mm 8 mps 737 mmHg 84%
    23:00 +5°C° 1.5 mm 9 mps 735 mmHg 86%

    Tomorrow, 27 September, Thursday

    Time Temperature Precipitation Wind Pressure Humidity
    00:00 +5°C° 1.3 mm 8 mps 734 mmHg 87%
    01:00 +5°C° 1.3 mm 8 mps 733 mmHg 88%
    02:00 +5°C° 1.3 mm 7 mps 732 mmHg 89%
    03:00 +5°C° 0.6 mm 7 mps 732 mmHg 87%
    04:00 +5°C° 0.6 mm 6 mps 732 mmHg 86%
    05:00 +6°C° 0.6 mm 5 mps 732 mmHg 84%
    06:00 +6°C° 0 mm 5 mps 732 mmHg 82%
    07:00 +5°C° 0 mm 6 mps 732 mmHg 80%
    08:00 +5°C° 0 mm 6 mps 732 mmHg 78%
    09:00 +6°C° 0.2 mm 7 mps 733 mmHg 73%
    10:00 +8°C° 0.2 mm 7 mps 733 mmHg 69%
    11:00 +8°C° 0.2 mm 7 mps 733 mmHg 64%
    12:00 +8°C° 0.1 mm 7 mps 733 mmHg 62%
    13:00 +8°C° 0.1 mm 7 mps 734 mmHg 61%
    14:00 +7°C° 0.1 mm 8 mps 734 mmHg 59%
    15:00 +8°C° 0.1 mm 7 mps 734 mmHg 61%
    16:00 +7°C° 0.1 mm 6 mps 735 mmHg 63%
    17:00 +5°C° 0.1 mm 6 mps 735 mmHg 65%
    18:00 +6°C° 0 mm 5 mps 735 mmHg 67%
    19:00 +5°C° 0 mm 5 mps 736 mmHg 68%
    20:00 +5°C° 0 mm 5 mps 736 mmHg 69%
    21:00 +5°C° 0 mm 5 mps 736 mmHg 70%
    22:00 +3°C° 0 mm 5 mps 736 mmHg 70%
    23:00 +3°C° 0 mm 5 mps 736 mmHg 71%

    Day after tomorrow, 28 September, Friday

    Time Temperature Precipitation Wind Pressure Humidity
    00:00 +3°C° 0 mm 5 mps 736 mmHg 72%
    01:00 +3°C° 0 mm 5 mps 736 mmHg 73%
    02:00 +4°C° 0 mm 4 mps 736 mmHg 74%
    03:00 +4°C° 0.1 mm 4 mps 736 mmHg 77%
    04:00 +4°C° 0.1 mm 4 mps 735 mmHg 81%
    05:00 +4°C° 0.1 mm 3 mps 735 mmHg 84%
    06:00 +4°C° 0.5 mm 3 mps 734 mmHg 86%
    07:00 +5°C° 0.5 mm 2 mps 733 mmHg 88%
    08:00 +5°C° 0.5 mm 2 mps 733 mmHg 91%
    09:00 +5°C° 0.4 mm 2 mps 733 mmHg 87%
    10:00 +6°C° 0.4 mm 2 mps 733 mmHg 84%
    11:00 +5°C° 0.4 mm 3 mps 733 mmHg 81%
    12:00 +5°C° 0.1 mm 4 mps 734 mmHg 76%
    13:00 +6°C° 0.1 mm 4 mps 735 mmHg 71%
    14:00 +6°C° 0.1 mm 5 mps 736 mmHg 66%
    15:00 +6°C° 0.1 mm 5 mps 736 mmHg 69%
    16:00 +5°C° 0.1 mm 4 mps 737 mmHg 72%
    17:00 +4°C° 0.1 mm 4 mps 738 mmHg 75%
    18:00 +3°C° 0 mm 4 mps 739 mmHg 76%
    19:00 +3°C° 0 mm 4 mps 739 mmHg 78%
    20:00 +1°C° 0 mm 4 mps 740 mmHg 79%
    21:00 +1°C° 0 mm 4 mps 740 mmHg 79%
    22:00 0°C° 0 mm 4 mps 741 mmHg 78%
    23:00 0°C° 0 mm 4 mps 742 mmHg 78%

    29 September, Saturday

    Time Temperature Precipitation Wind Pressure Humidity
    00:00 0°C° 0 mm 4 mps 742 mmHg 77%
    01:00 -1°C° 0 mm 4 mps 743 mmHg 77%
    02:00 -1°C° 0 mm 4 mps 743 mmHg 76%
    03:00 -1°C° 0 mm 4 mps 744 mmHg 76%
    04:00 -1°C° 0 mm 4 mps 745 mmHg 77%
    05:00 -1°C° 0 mm 5 mps 745 mmHg 77%
    06:00 0°C° 0 mm 5 mps 746 mmHg 74%
    07:00 0°C° 0 mm 5 mps 747 mmHg 72%
    08:00 +1°C° 0 mm 5 mps 747 mmHg 69%
    09:00 +2°C° 0 mm 5 mps 748 mmHg 65%
    10:00 +3°C° 0 mm 5 mps 749 mmHg 62%
    11:00 +3°C° 0 mm 5 mps 749 mmHg 59%
    12:00 +5°C° 0 mm 5 mps 750 mmHg 58%
    13:00 +5°C° 0 mm 5 mps 750 mmHg 58%
    14:00 +5°C° 0 mm 5 mps 750 mmHg 57%
    15:00 +4°C° 0.1 mm 4 mps 751 mmHg 60%
    16:00 +3°C° 0.1 mm 4 mps 751 mmHg 64%
    17:00 +3°C° 0.1 mm 3 mps 751 mmHg 67%
    18:00 +2°C° 0 mm 3 mps 752 mmHg 70%
    19:00 +1°C° 0 mm 3 mps 752 mmHg 73%
    20:00 0°C° 0 mm 3 mps 753 mmHg 77%
    21:00 0°C° 0 mm 3 mps 753 mmHg 76%
    22:00 0°C° 0 mm 3 mps 753 mmHg 75%
    23:00 0°C° 0 mm 3 mps 753 mmHg 75%

    30 September, Sunday

    Time Temperature Precipitation Wind Pressure Humidity
    00:00 0°C° 0 mm 3 mps 753 mmHg 75%
    01:00 0°C° 0 mm 3 mps 753 mmHg 75%
    02:00 0°C° 0 mm 3 mps 753 mmHg 76%
    03:00 -1°C° 0 mm 4 mps 753 mmHg 78%
    04:00 -1°C° 0 mm 4 mps 753 mmHg 80%
    05:00 -1°C° 0 mm 4 mps 753 mmHg 82%
    06:00 0°C° 0 mm 4 mps 753 mmHg 79%
    07:00 +1°C° 0 mm 4 mps 752 mmHg 76%
    08:00 +2°C° 0 mm 5 mps 752 mmHg 73%
    09:00 +3°C° 0 mm 5 mps 752 mmHg 68%
    10:00 +5°C° 0 mm 6 mps 752 mmHg 64%
    11:00 +7°C° 0 mm 6 mps 752 mmHg 60%
    12:00 +8°C° 0 mm 6 mps 751 mmHg 58%
    13:00 +8°C° 0 mm 6 mps 751 mmHg 56%
    14:00 +8°C° 0 mm 6 mps 750 mmHg 55%
    15:00 +8°C° 0 mm 6 mps 750 mmHg 58%
    16:00 +7°C° 0 mm 5 mps 750 mmHg 61%
    17:00 +6°C° 0 mm 5 mps 750 mmHg 64%
    18:00 +6°C° 0 mm 5 mps 750 mmHg 63%
    19:00 +6°C° 0 mm 5 mps 749 mmHg 63%
    20:00 +6°C° 0 mm 5 mps 749 mmHg 62%
    21:00 +6°C° 0 mm 5 mps 749 mmHg 63%
    22:00 +5°C° 0 mm 5 mps 749 mmHg 64%
    23:00 +5°C° 0 mm 5 mps 749 mmHg 64%

    1 October, Monday

    Time Temperature Precipitation Wind Pressure Humidity
    00:00 +5°C° 0 mm 5 mps 748 mmHg 67%
    01:00 +5°C° 0 mm 5 mps 748 mmHg 69%
    02:00 +5°C° 0 mm 5 mps 748 mmHg 71%
    03:00 +5°C° 0 mm 5 mps 748 mmHg 73%
    04:00 +3°C° 0 mm 5 mps 748 mmHg 76%
    05:00 +3°C° 0 mm 5 mps 748 mmHg 79%
    06:00 +5°C° 0 mm 5 mps 748 mmHg 78%
    07:00 +5°C° 0 mm 5 mps 748 mmHg 77%
    08:00 +6°C° 0 mm 5 mps 748 mmHg 76%
    09:00 +7°C° 0 mm 5 mps 748 mmHg 73%
    10:00 +8°C° 0 mm 5 mps 748 mmHg 70%
    11:00 +10°C° 0 mm 4 mps 748 mmHg 67%
    12:00 +10°C° 0 mm 4 mps 748 mmHg 67%
    13:00 +11°C° 0 mm 4 mps 748 mmHg 67%
    14:00 +11°C° 0 mm 4 mps 748 mmHg 66%
    15:00 +10°C° 0 mm 4 mps 748 mmHg 69%
    16:00 +10°C° 0 mm 3 mps 748 mmHg 73%
    17:00 +9°C° 0 mm 2 mps 748 mmHg 76%
    18:00 +9°C° 0 mm 3 mps 748 mmHg 78%
    19:00 +8°C° 0 mm 3 mps 748 mmHg 79%
    20:00 +8°C° 0 mm 3 mps 748 mmHg 81%
    21:00 +8°C° 0 mm 3 mps 748 mmHg 81%
    22:00 +7°C° 0 mm 3 mps 748 mmHg 81%
    23:00 +7°C° 0 mm 3 mps 748 mmHg 82%
    Show more